Location: Newark
(29.9790°N, 31.1340°E)
Time: 22:54:21
(UTC+00:00)

Transit 2A Rocket - Pass Details

Date: 22 January 2020
Orbit: 592 x 911 km, 66.7° (Epoch: 19 February)

Event Time Altitude Azimuth Distance (km) Brightness Sun altitude
Rises 13:18:12 0° 334° (NNW) 3,080 8.0 22.3°
Reaches altitude 10° 13:20:26 10° 334° (NNW) 2,207 7.3 21.9°
Maximum altitude 13:25:30 87° 245° (WSW) 775 5.5 21.1°
Drops below altitude 10° 13:31:03 10° 158° (SSE) 2,412 7.9 20.1°
Sets 13:33:36 0° 158° (SSE) 3,387 8.5 19.7°
